SL-16 R/B, 24298

Orbit data source: Space-Track

SL-16 R/B, 24298 is space debris in LEO originally from a launch on Wed, 04 Sep 1996 UTC launched from the Tyuratam Missile And Space Complex (TTMTR). Debris objects in space refer to the collection of defunct objects orbiting the Earth. Examples of debris include non-operational satellites, rocket bodies, and fragments generated from explosions, collisions, or faulty payload assembly.

Loading next visibility...
Identifier
24298, 1996-051B
Orbit
LEO
Last TLE update
15 hours ago
Origin
Manufacturer
Yuzhnoe
Mission
Spacecraft
Bus & Motor
11S772, Unknown motor
Mass
9,000 kg wet, 9,000 kg dry
Launch date (UTC)
1996-09-04 (29 years ago)
Launch vehicle
Unknown
Launch site
Tyuratam Missile And Space Complex (TTMTR)
Object type
Payload
Rocket body
Debris
Shape & HBR
Cyl, 10.4 m
Radar Cross Section
37.829 m², Large (>1 m²)

Expand to show TLE details & history

TLE from 15 hours ago
0 SL-16 R/B
1 24298U 96051B   25115.18470921 -.00000145  00000-0 -51838-4 0  9993
2 24298  70.7694 129.2753 0018076 248.6176 111.3015 14.12428809476935
Epoch: 2025-04-25T04:25Z
Definitive object data (Epoch: 2025-04-25T04:25:58.875Z)
Latitude
-0.00005°
Longitude
-150.66546°
Altitude
858.223 km
Speed
7.421 km/s
True Right ascension
08h 37m 06s
True Declination
0° 00' 00"
Sunlit
Object was in daylight at TLE epoch
Visualization TLE readout
Latitude
-48.8817°
Longitude
51.46234°
Altitude
856.835 km
Speed
7.43 km/s
Apparent Right ascension
18h 09m 33s
Apparent Declination
-61° 30' 12"
Sunlit
Object is in daylight
Visualization observer readout
Local Sidereal Time
02:23:30
Azimuth
218.228° SW
Elevation
-49.98°
Doppler factor
1
Orbital elements
Apogee altitude
862.086 km
Perigee altitude
835.959 km
Semi-major axis
7,227.159 km
Eccentricity
0.0018076
Inclination
70.7694°
RAAN
129.2753°
Arg. of periapsis
248.6176°
True anomaly
111.49433°
Mean anomaly
111.3015°
Eccentric anomaly
111.39793°
Mean motion
3.53258 °/min
BSTAR
-0.000051838
Orbital period
101.91 mins
Loading maneuver chart data...
Loading SW <> Apogee altitude chart data...
Loading historical data...
Loading historical data...
Loading historical data...
Loading historical data...
Loading historical data...
Loading historical data...
Loading historical data...

SL-16 R/B Visibility forecast

Observer location: undefined°, undefined°

Span
Click to sort rows by Start time (UTC) header in descending order
Start Az.
Max El. time (UTC)
Max El. Az.
Max El.
End time (UTC)
End Az.
6 mins2025-04-26 00:57:46.934Z134.702° SE2025-04-26 01:00:46.934Z98.303° ESE18.177°2025-04-26 01:03:46.934Z63.022° ENE
9 mins2025-04-26 02:40:46.934Z224.194° SW2025-04-26 02:44:46.934Z313.255° NW39.962°2025-04-26 02:49:46.934Z15.252° NNE
9 mins2025-04-26 11:35:46.934Z345.813° N2025-04-26 11:39:46.934Z43.466° NE41.321°2025-04-26 11:44:46.934Z143.208° SSE
5 mins2025-04-26 13:21:46.934Z285.822° WNW2025-04-26 13:23:46.934Z261.473° W16.518°2025-04-26 13:26:46.934Z226.823° WSW
|